Weather in Uki

Russia / Tyumen Oblast     58°51′46″N   68°49′05″E
temp.,
°C
wind,
m/s
gust,
m/s
humid.,
%
clouds,
%
prec.,
mm/h
press.,
hPa
HPBL,
m
13 june, sun
sun1323:00+15w376183 0.0 1021114
02:00+13wnw3765100 0.0 1021117
05:00+14w276962 0.0 1022137
08:00+21nw364558 0.0 1022481
11:00+25nw343177 0.0 10221514
14:00+27wnw342730 0.0 10222265
17:00+27wnw33277 0.0 10212271
20:00+21w225676 0.0 102122
14 june, mon
mon1423:00+16wsw2262100 0.0 102229
02:00+15sw236948 0.0 102256
05:00+15sw2573100 0.0 102395
08:00+22sw36515 0.0 1022508
11:00+25sw463499 0.0 10211886
14:00+28wsw5727100 0.0 10202542
17:00+28wsw57307 0.0 10182835
20:00+24wsw4114235 0.0 1017701
15 june, tue
tue1523:00+19ssw412595 0.0 1016295
02:00+18ssw4126963 0.0 1015285
05:00+17sw398440 0.0 1015247
08:00+22wsw476429 0.2 1014506
11:00+27wsw4743100 0.2 10131687
14:00+27w4843100 0.0 10121506
17:00+27sw384397 0.1 10101739
20:00+19sw41185100 0.4 1011331
16 june, wed
wed1623:00+16sw389899 2.7 1011347
02:00+15sw389985 0.4 1011230
05:00+15wsw379848 0.5 1011207
08:00+20wnw35795 0.0 1011460
11:00+26nw34505 0.0 10101510
14:00+28nw4539100 0.1 10102632
17:00+25nw1160100 0.1 101025
20:00+23sw23702 0.0 100965
17 june, thu
thu1723:00+19sw227734 0.0 100927
02:00+16ssw22893 0.1 100841
05:00+17ssw25905 0.2 1007107
08:00+23sw36610 0.0 1006574
11:00+28sw46425 0.0 10041615
14:00+29sw4536100 0.0 10022164
17:00+29ssw473997 0.0 9992090
20:00+23sse3116324 0.0 998423